Ephrata, WA
on Monday, November 12, 2012

Monday
Previous Day Next Day
Daily Summary
 ActualAverageRecord
Temperature
Mean Temperature °F 38°F  
Max Temperature 36°F 47°F 66°F (1999)
Min Temperature 31°F 30°F 5°F (1955)
Degree Days
Heating Degree Days 31 27  
Month to date heating degree days 267 291  
Since 1 July heating degree days 762 872  
Cooling Degree Days 0 0  
Month to date cooling degree days 0 0  
Year to date cooling degree days 837 772  
Moisture
Dew Point 30°F   
Average Humidity 87    
Maximum Humidity 92    
Minimum Humidity 82    
Precipitation
Precipitation 0.25 in 0.03 in 0.54 in (1973)
Month to date precipitation 0.55 0.38  
Year to date precipitation 6.41 5.93  
Wind
Wind Speed 4 mph   
Max Wind Speed 9 mph   
Max Gust Speed 10 mph   
Visibility 7 miles   
Events Snow   

Key: T is trace of precipitation, MM is missing value
Source: NWS Daily Summary
Time(PST)TemperatureDew PointHumidity Pressure Visibility Wind DirectionWind SpeedGust SpeedPrecipitationEvents Conditions
12:53 AM 32.0°F 30.9°F 96% 30.28 in 1.0 miles North 3.5 mph - 0.06 in Snow Light Snow
1:02 AM 32.0°F 30.2°F 93% 30.23 in 0.8 miles North 3.5 mph - 0.01 in Snow Light Snow
1:32 AM 32.0°F 30.2°F 93% 30.22 in 1.0 miles North 4.6 mph - 0.06 in Snow Light Snow
1:53 AM 32.0°F 30.9°F 96% 30.27 in 1.5 miles North 3.5 mph - 0.08 in Snow Light Snow
2:53 AM 32.0°F 30.9°F 96% 30.25 in 1.8 miles North 4.6 mph - 0.04 in Snow Light Snow
3:28 AM 32.0°F 30.2°F 93% 30.21 in 2.5 miles North 4.6 mph - 0.02 in Snow Light Snow
3:53 AM 32.0°F 30.9°F 96% 30.25 in 1.2 miles North 3.5 mph - 0.03 in Snow Light Snow
4:37 AM 32.0°F 30.2°F 93% 30.20 in 2.5 miles North 5.8 mph - 0.03 in Snow Light Snow
4:44 AM 32.0°F 30.2°F 93% 30.20 in 4.0 miles North 4.6 mph - 0.03 in Snow Light Snow
4:51 AM 32.0°F 30.2°F 93% 30.20 in 4.0 miles North 5.8 mph - 0.03 in   Overcast
4:53 AM 32.0°F 30.9°F 96% 30.25 in 5.0 miles North 5.8 mph - 0.03 in   Overcast
5:00 AM 32.0°F 30.2°F 93% 30.20 in 5.0 miles North 5.8 mph - N/A   Overcast
5:33 AM 32.0°F 32.0°F 100% 30.19 in 1.8 miles North 4.6 mph - N/A   Overcast
5:49 AM 32.0°F 30.2°F 93% 30.20 in 3.0 miles NNW 5.8 mph - N/A   Overcast
5:50 AM 32.0°F 30.9°F 96% 30.24 in 3.0 miles NNW 4.6 mph - N/A   Overcast
6:10 AM 32.0°F 30.2°F 93% 30.19 in 8.0 miles NNW 5.8 mph - 0.00 in   Overcast
6:53 AM 33.1°F 30.9°F 92% 30.24 in 8.0 miles North 5.8 mph - 0.00 in   Overcast
7:53 AM 33.1°F 30.9°F 92% 30.24 in 7.0 miles NW 6.9 mph - N/A   Overcast
8:19 AM 32.0°F 30.2°F 93% 30.20 in 2.0 miles WNW 6.9 mph - 0.00 in Snow Light Snow
8:31 AM 32.0°F 30.2°F 93% 30.20 in 1.5 miles NW 8.1 mph - 0.01 in Snow Light Snow
8:53 AM 33.1°F 30.0°F 89% 30.24 in 2.0 miles NW 8.1 mph - 0.02 in Snow Light Snow
8:58 AM 33.8°F 30.2°F 87% 30.20 in 4.0 miles NW 6.9 mph - 0.00 in Snow Light Snow
9:05 AM 33.8°F 30.2°F 87% 30.20 in 6.0 miles NW 6.9 mph - 0.00 in Snow Light Snow
9:53 AM 33.1°F 30.9°F 92% 30.23 in 8.0 miles NW 4.6 mph - 0.00 in Snow Light Snow
10:21 AM 33.8°F 30.2°F 87% 30.20 in 10.0 miles Calm Calm - 0.00 in   Overcast
10:53 AM 35.1°F 30.9°F 85% 30.24 in 10.0 miles NW 8.1 mph - 0.00 in   Overcast
11:18 AM 35.6°F 30.2°F 81% 30.20 in 10.0 miles NW 6.9 mph - N/A   Overcast
11:53 AM 35.1°F 30.9°F 85% 30.24 in 10.0 miles NNW 5.8 mph - N/A   Overcast
12:20 PM 35.6°F 30.2°F 81% 30.19 in 10.0 miles NNW 8.1 mph - N/A   Overcast
12:53 PM 35.1°F 32.0°F 89% 30.23 in - NNW 3.5 mph - N/A   Overcast
1:25 PM 35.6°F 32.0°F 87% 30.19 in - NNW 4.6 mph - N/A   Overcast
1:53 PM 35.1°F 32.0°F 89% 30.23 in 10.0 miles NNW 3.5 mph - N/A   Overcast
2:53 PM 35.1°F 32.0°F 89% 30.22 in 10.0 miles NNW 3.5 mph - N/A   Overcast
3:20 PM 35.6°F 30.2°F 81% 30.19 in 10.0 miles NNW 3.5 mph - N/A   Scattered Clouds
3:37 PM 35.6°F 30.2°F 81% 30.19 in 10.0 miles NW 4.6 mph - N/A   Mostly Cloudy
3:53 PM 35.1°F 30.9°F 85% 30.23 in 10.0 miles NW 3.5 mph - N/A   Mostly Cloudy
4:07 PM 33.8°F 30.2°F 87% 30.19 in 10.0 miles NW 5.8 mph - N/A   Scattered Clouds
4:51 PM 33.8°F 28.4°F 81% 30.20 in 10.0 miles NNW 3.5 mph - N/A   Mostly Cloudy
4:53 PM 33.1°F 30.0°F 89% 30.24 in 10.0 miles NNW 3.5 mph - N/A   Mostly Cloudy
5:38 PM 33.8°F 30.2°F 87% 30.21 in 10.0 miles Calm Calm - N/A   Overcast
5:53 PM 32.0°F 28.9°F 88% 30.25 in 10.0 miles NNW 4.6 mph - N/A   Overcast
6:20 PM 33.8°F 30.2°F 87% 30.21 in 10.0 miles Calm Calm - N/A   Overcast
6:53 PM 33.1°F 30.0°F 89% 30.27 in 10.0 miles Calm Calm - N/A   Overcast
7:38 PM 33.8°F 28.4°F 81% 30.22 in 10.0 miles NNW 3.5 mph - N/A   Overcast
7:53 PM 33.1°F 30.0°F 89% 30.27 in 10.0 miles Calm Calm - N/A   Overcast
8:53 PM 33.1°F 28.9°F 85% 30.29 in 10.0 miles WNW 3.5 mph - N/A   Overcast
9:18 PM 32.0°F 28.4°F 87% 30.24 in 10.0 miles NW 3.5 mph - N/A   Scattered Clouds
9:43 PM 32.0°F 28.4°F 87% 30.25 in 10.0 miles WNW 5.8 mph - N/A   Mostly Cloudy
9:51 PM 32.0°F 28.4°F 87% 30.24 in 10.0 miles NW 5.8 mph - N/A   Scattered Clouds
9:53 PM 32.0°F 28.0°F 85% 30.29 in 10.0 miles WNW 6.9 mph - N/A   Scattered Clouds
10:31 PM 32.0°F 28.4°F 87% 30.25 in 10.0 miles WNW 6.9 mph - N/A   Mostly Cloudy
10:53 PM 32.0°F 28.0°F 85% 30.30 in 10.0 miles WNW 5.8 mph - N/A   Overcast
11:53 PM 34.0°F 30.0°F 85% 30.30 in 10.0 miles Calm Calm - N/A   Overcast
Moon Phase
Nov. 12 Nov. 13 Nov. 20 Nov. 28 Dec. 06
Sunrise:06:58 AM (PST) Moon Rise:05:27 AM (PST)11/12
Sunset:04:25 PM (PST) Moon Set:03:35 PM (PST)11/12

Copyright © 2014 The Weather Underground, Inc.